User: anonymous   Login
Location: Boulin
(43.2500°N, 0.1333°E)
Time: 03:23:11
(UTC+00:00)
Language:

SJ-6F - Orbit

View from above orbital plane
View from above orbital plane
View from above satellite
View from above satellite

Ground track
Ground track

The orbit is defined by the following mean orbital elements,

1 33409U          26042.29479785 +.00000000 +00000-0 +19283-3 0 00003
2 33409  97.8686  60.0872 0021698 104.1643 256.1994 15.03678650    00
Epoch (UTC): 11 February 2026 07:04:30
Eccentricity: 0.0021698
inclination: 97.8686°
perigee height: 541 km
apogee height: 571 km
right ascension of ascending node: 60.0872°
argument of perigee: 104.1643°
revolutions per day: 15.03678650
mean anomaly at epoch: 256.1994°

The dashed part of the orbit path shows where the satellite is in the earth's shadow,  

DLR